Location: Newark
(48.5667°N, 7.8167°E)
Time: 00:05:31
(UTC+00:00)

X-37B - Pass Details

Date: 10 August 2021
Orbit: 381 x 393 km, 45.0° (Epoch: 29 August)

Event Time Altitude Azimuth Distance (km) Brightness Sun altitude
Exits shadow 01:18:19 12° 104° (ESE) 1,270 3.3 -21.8°
Drops below altitude 10° 01:18:39 10° 101° (ESE) 1,398 3.6 -21.8°
Sets 01:20:47 0° 94° (E) 2,251 4.8 -21.7°
